Regional Weather Roundup
Issued by NWS

Home | Current Version | Previous Version | Text Only | Print | Product List | Glossary Off
Versions: 1 2 3 4 5 6 7 8 9 10 11 12 13 14 15 16 17 18 19 20 21 22 23 24 25 26 27 28 29 30 31 32 33 34 35 36 37 38 39 40 41 42 43 44 45 46 47 48 49 50

000
ASUS45 KBOU 290507
RWRCO

WEATHER ROUNDUP FOR COLORADO
NATIONAL WEATHER SERVICE DENVER/BOULDER CO
1100 PM MDT SAT MAR 28 2015

NOTE: "FAIR" INDICATES FEW OR NO CLOUDS BELOW 12000 FEET WITH NO
SIGNIFICANT WEATHER AND/OR OBSTRUCTIONS TO VISIBILITY.

COZ001>005-013-030-031-290600-
...NORTHWEST COLORADO...

CITY           SKY/WX    TMP DP  RH WIND       PRES   REMARKS
CRAIG          MOCLDY    51  20  29 SW10      30.16R
HAYDEN         MOCLDY    48  23  37 W7        30.16R
MEEKER         PTCLDY    54  25  32 W3        30.17R
MOUNT WERNER   NOT AVBL
STEAMBOAT SPGS MOCLDY    47  31  53 E5        30.16R
WALDEN         PTCLDY    41  23  48 CALM      30.18S
$$

COZ006>008-011-290600-
...WEST CENTRAL VALLEYS...

CITY           SKY/WX    TMP DP  RH WIND       PRES   REMARKS
GRAND JUNCTION CLEAR     51  22  31 CALM      30.07R
MONTROSE       CLEAR     52  23  32 S12       30.15R
EAGLE          CLOUDY    55  28  35 NE3       30.19R
RIFLE          MOCLDY    61  28  28 W6        30.11R
DELTA          CLEAR     57  22  26 CALM      30.10R
NUCLA          CLEAR     52  19  28 E10       30.19R
$$

COZ017>023-064>068-290600-
...SOUTHWEST COLORADO...

CITY           SKY/WX    TMP DP  RH WIND       PRES   REMARKS
DURANGO        CLEAR     47  17  30 CALM      30.20S
CORTEZ         CLEAR     42  20  41 E9        30.18R
PAGOSA SPRINGS CLEAR     44  20  38 CALM      30.26R
TELLURIDE      CLEAR     45  24  42 SE7       30.35
WOLF CREEK PAS CLEAR     34  14  44 SW17      30.46S WCI  23
$$

COZ009-010-012-014-032>034-037-058>063-290600-
...CENTRAL COLORADO...

CITY           SKY/WX    TMP DP  RH WIND       PRES   REMARKS
ASPEN          LGT RAIN  51  29  42 SW7       30.24R
BUENA VISTA    PTCLDY    45  19  36 CALM      30.18S
COPPER MTN     CLOUDY    36  27  69 W13G25    30.39R
BERTHOUD PASS  MOCLDY    28  21  74 NW23G43   30.37F WCI  14
COTTONWOOD PAS PTCLDY    50  10  20 W20G39    30.25R
GUNNISON       CLEAR     39  21  48 CALM      30.25S
KREMMLING      PTCLDY    50  30  46 SW8       30.19F
LEADVILLE      FLURRIES  35  29  78 W9G37     30.34R WCI  28
SALIDA         PTCLDY    52  20  28 SW9       30.23S
SUNLIGHT       CLOUDY    39  28  65 CALM      30.38S
WILKERSON PASS PTCLDY    37  18  44 W15G25    30.33S
$$

COZ069>075-290600-
...SAN LUIS VALLEY/SANGRE DE CRISTO MOUNTAINS...

CITY           SKY/WX    TMP DP  RH WIND       PRES   REMARKS
ALAMOSA        CLEAR     51  18  27 NW3       30.19S
LA VETA PASS   CLEAR     43  19  39 SW9G18    30.27S
SAGUACHE       CLEAR     43  19  39 NW9       30.21S
$$

COZ035-036-038>040-290600-
...NORTHERN COLORADO FRONT RANGE...

CITY           SKY/WX    TMP DP  RH WIND       PRES   REMARKS
DENVER INTL AP PTCLDY    62  31  31 W25G37    30.00R
DMNS CITY PARK   N/A     61  30  31 N9G16     30.01S
AURORA         PTCLDY    60  29  31 NW13      30.03R
FRONT RANGE AP NOT AVBL
ERIE MUNI ARPT PTCLDY    59  31  35 W8        30.00F
BOULDER MUN AP PTCLDY    57  32  38 E6        29.99F
CENTENNIAL     PTCLDY    59  24  26 W7        30.03S
BROOMFIELD     NOT AVBL
FORT COLLINS   PTCLDY    57  30  35 NE8       30.00R
LONGMONT       PTCLDY    61  32  33 SW12G18   29.98F
$$

COZ041-046-047-076>085-087-088-290600-
...PIKES PEAK/PALMER DIVIDE AND SOUTHERN FOOTHILLS...

CITY           SKY/WX    TMP DP  RH WIND       PRES   REMARKS
COLO. SPRINGS  CLEAR     54  21  27 N9        30.05R
A. F. ACADEMY  CLEAR     57  19  22 N6        30.06S
ELLICOTT       CLEAR    N/A N/A N/A N5        30.03R
FALCON         CLEAR     53  19  27 W9        30.10R
FORT CARSON    CLEAR     63  21  19 SW14      30.01S
LIMON          CLEAR     46  27  47 CALM      29.98S
MONUMENT HILL  CLEAR     45  23  42 W10       30.09R
TRINIDAD       CLEAR     59  23  25 SW17      30.03R
$$

COZ042>045-048>051-090-091-290600-
...NORTHEAST COLORADO...

CITY           SKY/WX    TMP DP  RH WIND       PRES   REMARKS
GREELEY ARPT   PTCLDY    61  30  31 W9        29.95R
AKRON          CLOUDY    60  27  28 W14       29.92R
BURLINGTON     CLEAR     57  25  29 S16       29.91R
WRAY           CLOUDY    63  27  26 W13       29.87R
STERLING       CLOUDY    64  30  27 NW20      29.88R
HOLYOKE        NOT AVBL
FORT MORGAN    CLOUDY    64  27  24 W18G35    29.93R
$$

COZ086-089-092>099-290600-
...SOUTHEAST COLORADO...

CITY           SKY/WX    TMP DP  RH WIND       PRES   REMARKS
PUEBLO         CLEAR     61  20  20 W15       29.94S
LA JUNTA       CLEAR     58  27  30 SW15      29.90S
LAMAR          CLEAR     60  26  27 S13       29.84F
SPRINGFIELD      N/A     55  26  32 S10       29.95F
$$


USA.gov is the U.S. government's official web portal to all federal, state and local government web resources and services.